QPF
0.00 0.00 0.00 0.00 0.00 0.00 0.00 0.00 0.00 0.00 0.00 0.00 0.00 0.00 0.00 0.00 0.00 0.00 0.00 0.00 0.00 0.00 0.00 0.00 0.00 0.00 0.00 0.00 0.00 0.00 0.00 0.00 0.00 0.00 0.00 0.00 0.00 0.00 0.00 0.00 0.00 0.00 0.00
0.00 0.00 0.00 0.00 0.00 0.00 0.00 0.00 0.00 0.00 0.00 0.00 0.00 0.00 0.00 0.00 0.00 0.00 0.00 0.00 0.00 0.00 0.00 0.00 0.00 0.00 0.00 0.00 0.00 0.00 0.00 0.00 0.00 0.00 0.00 0.00 0.00 0.00 0.00 0.00 0.00 0.00 0.00
0.00 0.00 0.00 0.00 0.00 0.00 0.00 0.00 0.00 0.00 0.00 0.00 0.00 0.00 0.00 0.00 0.00 0.00 0.00 0.00 0.00 0.00 0.00 0.00 0.00 0.00 0.00 0.00 0.00 0.00 0.00 0.00 0.00 0.00 0.00 0.00 0.00 0.00 0.00 0.00 0.00 0.00 0.00
0.00 0.00 0.00 0.00 0.00 0.00 0.00 0.00 0.00 0.00 0.00 0.00 0.00 0.00 0.00 0.00 0.00 0.00 0.00 0.00 0.00 0.00 0.00 0.00 0.00 0.00 0.00 0.00 0.00 0.00 0.00 0.00 0.00 0.00 0.00 0.00 0.00 0.00 0.00 0.00 0.00 0.00 0.00
0.01 0.01 0.01 0.00 0.00 0.00 0.00 0.00 0.00 0.00 0.00 0.00 0.00 0.00 0.00 0.00 0.00 0.00 0.00 0.00 0.00 0.00 0.00 0.00 0.00 0.00 0.00 0.00 0.00 0.00 0.00 0.00 0.00 0.00 0.00 0.00 0.00 0.00 0.00 0.00 0.00 0.00 0.00
0.03 0.02 0.02 0.01 0.01 0.01 0.01 0.00 0.00 0.00 0.00 0.00 0.00 0.00 0.00 0.00 0.00 0.00 0.00 0.00 0.00 0.00 0.00 0.00 0.00 0.00 0.00 0.00 0.00 0.00 0.00 0.00 0.00 0.00 0.00 0.00 0.00 0.00 0.00 0.00 0.00 0.00 0.00
0.04 0.03 0.03 0.03 0.03 0.02 0.02 0.02 0.02 0.02 0.01 0.01 0.01 0.00 0.00 0.00 0.00 0.00 0.00 0.00 0.00 0.00 0.00 0.00 0.00 0.00 0.00 0.00 0.00 0.00 0.00 0.00 0.00 0.00 0.00 0.00 0.00 0.00 0.00 0.00 0.00 0.00 0.00
0.03 0.04 0.04 0.04 0.04 0.04 0.04 0.05 0.05 0.05 0.04 0.05 0.04 0.03 0.01 0.00 0.00 0.00 0.00 0.00 0.00 0.00 0.00 0.00 0.00 0.00 0.00 0.00 0.00 0.00 0.00 0.00 0.00 0.00 0.00 0.00 0.00 0.00 0.00 0.00 0.00 0.00 0.00
0.03 0.02 0.03 0.04 0.05 0.06 0.06 0.08 0.09 0.09 0.08 0.09 0.08 0.07 0.03 0.01 0.01 0.01 0.01 0.02 0.02 0.01 0.01 0.01 0.01 0.01 0.01 0.00 0.00 0.00 0.00 0.00 0.00 0.00 0.00 0.00 0.00 0.00 0.00 0.00 0.00 0.00 0.00
0.02 0.02 0.02 0.03 0.03 0.04 0.06 0.07 0.10 0.12 0.13 0.12 0.11 0.09 0.07 0.05 0.04 0.02 0.01 0.03 0.03 0.02 0.02 0.02 0.02 0.02 0.02 0.01 0.01 0.01 0.01 0.02 0.02 0.01 0.01 0.00 0.00 0.00 0.00 0.00 0.00 0.00 0.00
0.01 0.02 0.02 0.02 0.02 0.03 0.05 0.06 0.09 0.12 0.14 0.14 0.14 0.13 0.13 0.11 0.08 0.06 0.04 0.03 0.04 0.05 0.04 0.03 0.03 0.02 0.02 0.02 0.03 0.04 0.05 0.05 0.05 0.03 0.02 0.01 0.01 0.01 0.01 0.01 0.01 0.00 0.00
0.00 0.00 0.01 0.01 0.02 0.02 0.03 0.05 0.07 0.11 0.14 0.15 0.16 0.15 0.15 0.14 0.12 0.12 0.10 0.07 0.07 0.07 0.07 0.06 0.05 0.05 0.05 0.06 0.08 0.09 0.10 0.10 0.08 0.07 0.06 0.05 0.04 0.03 0.03 0.02 0.02 0.01 0.01
0.00 0.00 0.00 0.01 0.01 0.01 0.02 0.04 0.06 0.08 0.11 0.14 0.16 0.17 0.16 0.16 0.17 0.18 0.17 0.15 0.12 0.11 0.11 0.12 0.13 0.14 0.14 0.14 0.15 0.17 0.17 0.16 0.16 0.15 0.14 0.12 0.11 0.09 0.07 0.05 0.03 0.02 0.01
0.00 0.00 0.01 0.01 0.01 0.01 0.02 0.03 0.05 0.06 0.09 0.11 0.13 0.16 0.17 0.17 0.19 0.19 0.20 0.22 0.22 0.20 0.19 0.19 0.20 0.21 0.22 0.22 0.24 0.26 0.23 0.23 0.21 0.19 0.17 0.16 0.13 0.10 0.07 0.05 0.03 0.02 0.01
0.00 0.00 0.00 0.00 0.01 0.01 0.01 0.03 0.04 0.05 0.07 0.08 0.10 0.12 0.14 0.15 0.17 0.19 0.22 0.25 0.30 0.30 0.25 0.21 0.22 0.25 0.27 0.28 0.30 0.28 0.23 0.23 0.21 0.18 0.16 0.14 0.11 0.08 0.06 0.04 0.03 0.02 0.01
0.00 0.00 0.00 0.00 0.00 0.00 0.01 0.01 0.02 0.03 0.04 0.05 0.07 0.08 0.10 0.11 0.13 0.15 0.18 0.22 0.27 0.32 0.31 0.25 0.23 0.23 0.24 0.25 0.26 0.23 0.20 0.20 0.18 0.16 0.14 0.11 0.09 0.07 0.05 0.03 0.02 0.02 0.01
0.00 0.00 0.00 0.00 0.00 0.00 0.00 0.00 0.01 0.01 0.02 0.02 0.03 0.05 0.06 0.08 0.10 0.11 0.13 0.15 0.19 0.24 0.27 0.26 0.23 0.22 0.22 0.21 0.20 0.18 0.16 0.15 0.13 0.12 0.10 0.07 0.05 0.03 0.02 0.02 0.01 0.01 0.01
0.00 0.00 0.00 0.00 0.00 0.00 0.00 0.00 0.00 0.00 0.01 0.01 0.02 0.02 0.03 0.03 0.04 0.06 0.07 0.09 0.12 0.15 0.18 0.19 0.19 0.18 0.16 0.15 0.14 0.13 0.11 0.09 0.08 0.07 0.05 0.04 0.03 0.02 0.01 0.01 0.01 0.00 0.00
0.00 0.00 0.00 0.00 0.00 0.00 0.00 0.00 0.00 0.00 0.00 0.01 0.01 0.01 0.01 0.02 0.03 0.04 0.05 0.06 0.08 0.10 0.12 0.13 0.12 0.11 0.10 0.09 0.08 0.07 0.06 0.05 0.03 0.03 0.03 0.02 0.01 0.01 0.01 0.00 0.00 0.00 0.00
0.00 0.00 0.00 0.00 0.00 0.00 0.00 0.00 0.00 0.01 0.01 0.01 0.01 0.02 0.02 0.03 0.04 0.05 0.06 0.06 0.07 0.08 0.08 0.09 0.09 0.09 0.07 0.06 0.04 0.03 0.03 0.02 0.02 0.01 0.01 0.01 0.00 0.00 0.00 0.00 0.00 0.00 0.00
0.00 0.00 0.00 0.00 0.00 0.00 0.00 0.00 0.00 0.00 0.01 0.02 0.02 0.03 0.04 0.05 0.06 0.06 0.06 0.07 0.07 0.07 0.06 0.06 0.06 0.05 0.04 0.03 0.02 0.02 0.01 0.01 0.01 0.00 0.00 0.00 0.00 0.00 0.00 0.00 0.00 0.00 0.00
0.00 0.00 0.00 0.00 0.00 0.00 0.00 0.01 0.00 0.00 0.01 0.02 0.03 0.03 0.04 0.04 0.04 0.04 0.04 0.04 0.04 0.04 0.04 0.03 0.03 0.02 0.02 0.01 0.01 0.01 0.01 0.00 0.00 0.00 0.00 0.00 0.00 0.00 0.00 0.00 0.00 0.00 0.00
0.00 0.00 0.00 0.00 0.00 0.00 0.00 0.01 0.00 0.01 0.01 0.01 0.01 0.02 0.02 0.02 0.02 0.03 0.03 0.03 0.02 0.02 0.02 0.01 0.01 0.01 0.00 0.00 0.00 0.00 0.00 0.00 0.00 0.00 0.00 0.00 0.00 0.00 0.00 0.00 0.00 0.00 0.00
0.00 0.00 0.00 0.00 0.00 0.00 0.00 0.00 0.00 0.00 0.00 0.00 0.01 0.01 0.01 0.02 0.02 0.02 0.02 0.02 0.01 0.01 0.01 0.00 0.00 0.00 0.00 0.00 0.00 0.00 0.00 0.00 0.00 0.00 0.00 0.00 0.00 0.00 0.00 0.00 0.00 0.00 0.00
0.00 0.00 0.00 0.00 0.00 0.00 0.00 0.00 0.00 0.00 0.00 0.00 0.00 0.00 0.00 0.01 0.01 0.01 0.01 0.00 0.00 0.00 0.00 0.00 0.00 0.00 0.00 0.00 0.00 0.00 0.00 0.00 0.00 0.00 0.00 0.00 0.00 0.00 0.00 0.00 0.00 0.00 0.00
0.00 0.00 0.00 0.00 0.00 0.00 0.00 0.00 0.00 0.00 0.00 0.00 0.00 0.00 0.00 0.00 0.00 0.00 0.00 0.00 0.00 0.00 0.00 0.00 0.00 0.00 0.00 0.00 0.00 0.00 0.00 0.00 0.00 0.00 0.00 0.00 0.00 0.00 0.00 0.00 0.00 0.00 0.00
MSLP
1020.33 1020.48 1020.58 1020.65 1020.70 1020.77 1020.85 1020.95 1021.05 1021.15 1021.22 1021.25 1021.25 1021.22 1021.18 1021.15 1021.15 1021.19 1021.26 1021.38 1021.51 1021.66 1021.81 1021.96 1022.11 1022.25 1022.38 1022.51 1022.61 1022.70 1022.76 1022.79 1022.80 1022.80 1022.79 1022.81 1022.84 1022.89 1022.96 1023.03 1023.09 1023.12 1023.12
1019.89 1020.02 1020.12 1020.20 1020.28 1020.38 1020.51 1020.65 1020.80 1020.94 1021.04 1021.10 1021.11 1021.09 1021.05 1021.01 1020.99 1021.01 1021.06 1021.16 1021.28 1021.43 1021.59 1021.76 1021.94 1022.11 1022.28 1022.43 1022.56 1022.67 1022.75 1022.80 1022.83 1022.86 1022.88 1022.91 1022.96 1023.03 1023.10 1023.17 1023.22 1023.25 1023.25
1019.38 1019.50 1019.60 1019.70 1019.81 1019.96 1020.13 1020.33 1020.52 1020.70 1020.84 1020.93 1020.97 1020.96 1020.93 1020.89 1020.85 1020.84 1020.86 1020.92 1021.02 1021.14 1021.30 1021.47 1021.66 1021.86 1022.05 1022.24 1022.41 1022.56 1022.67 1022.76 1022.83 1022.89 1022.94 1023.00 1023.06 1023.13 1023.21 1023.27 1023.31 1023.33 1023.33
1018.85 1018.96 1019.07 1019.19 1019.34 1019.53 1019.75 1019.98 1020.22 1020.44 1020.62 1020.74 1020.81 1020.83 1020.81 1020.77 1020.72 1020.68 1020.67 1020.69 1020.74 1020.83 1020.96 1021.12 1021.31 1021.52 1021.74 1021.97 1022.18 1022.37 1022.53 1022.67 1022.78 1022.88 1022.97 1023.05 1023.14 1023.22 1023.29 1023.33 1023.36 1023.36 1023.34
1018.31 1018.42 1018.54 1018.69 1018.87 1019.09 1019.34 1019.61 1019.88 1020.13 1020.34 1020.50 1020.60 1020.65 1020.66 1020.63 1020.58 1020.52 1020.48 1020.45 1020.45 1020.50 1020.59 1020.72 1020.90 1021.12 1021.36 1021.61 1021.86 1022.10 1022.32 1022.51 1022.68 1022.83 1022.96 1023.07 1023.18 1023.26 1023.33 1023.37 1023.37 1023.36 1023.32
1017.78 1017.88 1018.01 1018.18 1018.38 1018.63 1018.90 1019.20 1019.48 1019.75 1019.99 1020.17 1020.31 1020.40 1020.43 1020.42 1020.38 1020.32 1020.25 1020.20 1020.16 1020.16 1020.20 1020.31 1020.46 1020.67 1020.92 1021.20 1021.48 1021.76 1022.03 1022.27 1022.49 1022.69 1022.87 1023.02 1023.15 1023.26 1023.33 1023.37 1023.36 1023.33 1023.28
1017.26 1017.35 1017.48 1017.66 1017.88 1018.13 1018.41 1018.71 1019.00 1019.28 1019.52 1019.73 1019.90 1020.02 1020.09 1020.12 1020.10 1020.05 1019.98 1019.90 1019.83 1019.80 1019.81 1019.88 1020.01 1020.21 1020.45 1020.73 1021.04 1021.35 1021.65 1021.94 1022.21 1022.45 1022.68 1022.88 1023.05 1023.18 1023.28 1023.32 1023.33 1023.29 1023.23
1016.78 1016.85 1016.97 1017.14 1017.36 1017.61 1017.88 1018.16 1018.44 1018.71 1018.95 1019.17 1019.36 1019.51 1019.62 1019.69 1019.70 1019.67 1019.61 1019.53 1019.45 1019.40 1019.39 1019.43 1019.54 1019.72 1019.95 1020.23 1020.54 1020.86 1021.19 1021.51 1021.81 1022.11 1022.38 1022.63 1022.85 1023.03 1023.16 1023.24 1023.27 1023.25 1023.19
1016.37 1016.41 1016.51 1016.66 1016.86 1017.09 1017.33 1017.58 1017.83 1018.07 1018.30 1018.52 1018.72 1018.89 1019.03 1019.12 1019.17 1019.18 1019.14 1019.08 1019.01 1018.96 1018.94 1018.97 1019.06 1019.22 1019.44 1019.70 1020.00 1020.33 1020.66 1020.99 1021.33 1021.66 1021.98 1022.29 1022.56 1022.80 1022.99 1023.12 1023.19 1023.20 1023.16
1016.08 1016.08 1016.16 1016.28 1016.45 1016.64 1016.84 1017.05 1017.25 1017.45 1017.64 1017.83 1018.02 1018.19 1018.34 1018.47 1018.55 1018.59 1018.59 1018.56 1018.51 1018.48 1018.47 1018.50 1018.59 1018.74 1018.94 1019.19 1019.47 1019.78 1020.10 1020.44 1020.80 1021.16 1021.52 1021.88 1022.22 1022.52 1022.77 1022.96 1023.08 1023.13 1023.13
1015.96 1015.94 1015.98 1016.07 1016.20 1016.34 1016.49 1016.63 1016.77 1016.90 1017.04 1017.19 1017.34 1017.50 1017.65 1017.78 1017.88 1017.95 1017.98 1017.99 1017.98 1017.98 1018.00 1018.05 1018.15 1018.30 1018.50 1018.73 1018.99 1019.28 1019.59 1019.93 1020.29 1020.66 1021.06 1021.46 1021.85 1022.22 1022.53 1022.78 1022.95 1023.05 1023.07
1016.07 1016.03 1016.04 1016.09 1016.17 1016.25 1016.33 1016.39 1016.46 1016.52 1016.59 1016.68 1016.78 1016.90 1017.02 1017.14 1017.25 1017.33 1017.39 1017.43 1017.47 1017.51 1017.57 1017.66 1017.78 1017.95 1018.14 1018.37 1018.62 1018.89 1019.19 1019.51 1019.86 1020.25 1020.66 1021.09 1021.52 1021.93 1022.29 1022.58 1022.79 1022.93 1022.98
1016.41 1016.36 1016.34 1016.35 1016.37 1016.39 1016.40 1016.39 1016.37 1016.35 1016.35 1016.37 1016.41 1016.47 1016.56 1016.65 1016.74 1016.82 1016.90 1016.97 1017.04 1017.13 1017.23 1017.36 1017.52 1017.71 1017.92 1018.15 1018.40 1018.66 1018.94 1019.25 1019.59 1019.97 1020.38 1020.81 1021.25 1021.67 1022.05 1022.36 1022.60 1022.75 1022.82
1016.98 1016.92 1016.88 1016.84 1016.81 1016.76 1016.69 1016.61 1016.52 1016.43 1016.35 1016.30 1016.28 1016.29 1016.32 1016.37 1016.43 1016.50 1016.58 1016.66 1016.77 1016.89 1017.03 1017.21 1017.41 1017.63 1017.86 1018.10 1018.35 1018.60 1018.87 1019.16 1019.48 1019.84 1020.23 1020.64 1021.06 1021.46 1021.82 1022.13 1022.36 1022.51 1022.58
1017.70 1017.63 1017.57 1017.49 1017.40 1017.30 1017.17 1017.03 1016.88 1016.73 1016.60 1016.49 1016.41 1016.37 1016.35 1016.35 1016.38 1016.42 1016.49 1016.57 1016.69 1016.83 1017.01 1017.22 1017.46 1017.71 1017.97 1018.22 1018.48 1018.73 1018.98 1019.25 1019.54 1019.86 1020.21 1020.57 1020.94 1021.29 1021.61 1021.87 1022.07 1022.19 1022.25
1018.50 1018.43 1018.33 1018.22 1018.09 1017.94 1017.77 1017.58 1017.40 1017.22 1017.06 1016.92 1016.81 1016.73 1016.66 1016.63 1016.61 1016.62 1016.66 1016.73 1016.84 1016.99 1017.18 1017.41 1017.67 1017.94 1018.21 1018.48 1018.74 1018.99 1019.23 1019.47 1019.73 1020.00 1020.29 1020.58 1020.88 1021.15 1021.40 1021.59 1021.73 1021.81 1021.85
1019.29 1019.20 1019.08 1018.94 1018.78 1018.60 1018.41 1018.22 1018.03 1017.86 1017.70 1017.56 1017.44 1017.33 1017.25 1017.17 1017.12 1017.09 1017.09 1017.13 1017.21 1017.35 1017.53 1017.76 1018.02 1018.29 1018.57 1018.84 1019.09 1019.33 1019.56 1019.77 1019.99 1020.20 1020.42 1020.64 1020.85 1021.03 1021.18 1021.29 1021.36 1021.39 1021.40
1020.00 1019.90 1019.76 1019.60 1019.43 1019.25 1019.06 1018.89 1018.73 1018.58 1018.45 1018.34 1018.23 1018.13 1018.03 1017.93 1017.84 1017.77 1017.73 1017.72 1017.77 1017.86 1018.02 1018.22 1018.45 1018.72 1018.98 1019.24 1019.48 1019.70 1019.91 1020.09 1020.26 1020.42 1020.57 1020.71 1020.83 1020.91 1020.97 1020.99 1020.98 1020.95 1020.92
1020.61 1020.50 1020.35 1020.19 1020.02 1019.85 1019.70 1019.56 1019.45 1019.36 1019.28 1019.21 1019.13 1019.04 1018.94 1018.82 1018.70 1018.59 1018.49 1018.44 1018.43 1018.48 1018.58 1018.74 1018.94 1019.17 1019.40 1019.64 1019.86 1020.06 1020.24 1020.39 1020.52 1020.63 1020.72 1020.78 1020.81 1020.80 1020.77 1020.70 1020.62 1020.54 1020.47
1021.13 1021.01 1020.86 1020.71 1020.56 1020.43 1020.32 1020.24 1020.18 1020.15 1020.13 1020.10 1020.05 1019.98 1019.88 1019.76 1019.61 1019.45 1019.31 1019.20 1019.13 1019.12 1019.17 1019.27 1019.42 1019.61 1019.81 1020.01 1020.20 1020.37 1020.53 1020.65 1020.74 1020.81 1020.84 1020.84 1020.80 1020.72 1020.60 1020.47 1020.32 1020.18 1020.07
1021.58 1021.47 1021.35 1021.22 1021.10 1021.01 1020.95 1020.92 1020.92 1020.94 1020.96 1020.97 1020.95 1020.89 1020.79 1020.64 1020.46 1020.27 1020.08 1019.92 1019.80 1019.73 1019.73 1019.78 1019.88 1020.02 1020.18 1020.34 1020.50 1020.65 1020.77 1020.87 1020.94 1020.97 1020.96 1020.91 1020.81 1020.67 1020.50 1020.30 1020.10 1019.91 1019.75
1022.02 1021.94 1021.84 1021.75 1021.67 1021.61 1021.59 1021.60 1021.64 1021.69 1021.73 1021.76 1021.75 1021.69 1021.57 1021.41 1021.20 1020.98 1020.75 1020.55 1020.39 1020.28 1020.22 1020.23 1020.29 1020.38 1020.51 1020.64 1020.77 1020.89 1021.00 1021.07 1021.12 1021.12 1021.08 1020.99 1020.86 1020.68 1020.46 1020.22 1019.97 1019.73 1019.53
1022.47 1022.43 1022.37 1022.31 1022.27 1022.24 1022.24 1022.27 1022.32 1022.37 1022.41 1022.43 1022.40 1022.32 1022.19 1022.00 1021.78 1021.53 1021.28 1021.05 1020.86 1020.72 1020.64 1020.61 1020.64 1020.70 1020.79 1020.90 1021.01 1021.11 1021.20 1021.26 1021.28 1021.27 1021.21 1021.10 1020.94 1020.73 1020.49 1020.21 1019.92 1019.64 1019.40
1022.94 1022.94 1022.93 1022.90 1022.87 1022.86 1022.86 1022.88 1022.91 1022.94 1022.95 1022.94 1022.88 1022.77 1022.61 1022.41 1022.17 1021.90 1021.64 1021.40 1021.20 1021.05 1020.96 1020.91 1020.92 1020.97 1021.04 1021.13 1021.22 1021.31 1021.37 1021.42 1021.44 1021.41 1021.34 1021.21 1021.04 1020.81 1020.54 1020.24 1019.93 1019.61 1019.33
1023.40 1023.45 1023.46 1023.45 1023.44 1023.42 1023.40 1023.39 1023.38 1023.36 1023.33 1023.28 1023.18 1023.05 1022.86 1022.64 1022.39 1022.13 1021.87 1021.64 1021.44 1021.29 1021.19 1021.15 1021.14 1021.18 1021.24 1021.31 1021.38 1021.45 1021.51 1021.54 1021.54 1021.51 1021.42 1021.29 1021.11 1020.87 1020.59 1020.27 1019.94 1019.60 1019.28
1023.80 1023.88 1023.91 1023.91 1023.89 1023.85 1023.80 1023.75 1023.69 1023.63 1023.55 1023.45 1023.32 1023.16 1022.97 1022.75 1022.50 1022.25 1022.01 1021.79 1021.61 1021.47 1021.37 1021.32 1021.31 1021.33 1021.37 1021.43 1021.48 1021.54 1021.57 1021.59 1021.58 1021.53 1021.43 1021.29 1021.09 1020.85 1020.57 1020.24 1019.90 1019.55 1019.20
Thickness
5693 5691 5689 5686 5685 5683 5680 5678 5676 5674 5672 5670 5669 5667 5666 5663 5660 5657 5655 5652 5650 5648 5644 5641 5639 5636 5634 5631 5630 5627 5626 5624 5622 5621 5619 5618 5617 5615 5614 5613 5613 5612 5612
5692 5689 5687 5684 5682 5680 5678 5675 5673 5671 5669 5667 5665 5663 5661 5659 5656 5654 5651 5648 5645 5642 5640 5637 5634 5631 5629 5626 5624 5622 5619 5618 5616 5615 5613 5611 5610 5609 5608 5607 5607 5606 5606
5691 5689 5686 5683 5681 5678 5675 5672 5669 5666 5664 5662 5660 5658 5656 5654 5651 5649 5646 5643 5640 5637 5634 5632 5629 5626 5623 5620 5618 5615 5613 5611 5610 5608 5607 5605 5604 5603 5602 5601 5600 5600 5600
5690 5687 5684 5682 5679 5676 5672 5669 5665 5662 5659 5657 5655 5653 5651 5649 5646 5643 5641 5638 5635 5632 5629 5626 5623 5620 5617 5614 5612 5609 5607 5604 5602 5601 5600 5598 5597 5596 5595 5595 5594 5594 5593
5688 5685 5683 5681 5677 5673 5670 5666 5662 5659 5655 5652 5649 5646 5644 5642 5640 5637 5635 5631 5629 5626 5623 5620 5617 5614 5611 5608 5606 5603 5600 5597 5595 5593 5592 5591 5590 5589 5588 5588 5587 5587 5587
5684 5682 5680 5677 5673 5669 5666 5662 5659 5655 5651 5647 5643 5641 5638 5635 5633 5631 5629 5625 5622 5619 5616 5613 5610 5608 5605 5602 5599 5597 5594 5590 5588 5586 5584 5583 5582 5581 5580 5580 5580 5580 5580
5680 5677 5675 5672 5669 5666 5663 5659 5654 5649 5645 5640 5634 5630 5629 5627 5625 5624 5621 5618 5615 5612 5609 5607 5604 5601 5598 5595 5592 5589 5587 5584 5580 5578 5576 5575 5574 5573 5572 5572 5572 5572 5572
5674 5672 5670 5668 5665 5661 5658 5654 5649 5644 5640 5634 5627 5620 5617 5618 5619 5618 5613 5611 5610 5606 5603 5600 5597 5594 5591 5588 5585 5582 5579 5576 5573 5571 5568 5567 5565 5564 5564 5563 5563 5563 5564
5667 5666 5664 5662 5659 5656 5652 5649 5644 5638 5634 5628 5623 5616 5609 5612 5610 5608 5606 5604 5601 5598 5596 5592 5589 5586 5583 5580 5577 5574 5571 5568 5565 5562 5560 5557 5556 5555 5555 5554 5554 5554 5555
5660 5659 5657 5655 5653 5650 5647 5644 5640 5635 5629 5622 5615 5611 5607 5605 5597 5597 5595 5593 5590 5588 5586 5583 5580 5578 5575 5572 5569 5566 5562 5558 5555 5552 5550 5548 5546 5545 5545 5545 5545 5545 5545
5651 5651 5649 5647 5645 5643 5640 5637 5633 5628 5623 5618 5611 5604 5598 5592 5588 5583 5584 5581 5576 5576 5574 5572 5570 5567 5564 5562 5559 5557 5553 5548 5545 5542 5540 5538 5537 5536 5535 5535 5534 5534 5534
5641 5640 5640 5638 5637 5635 5632 5629 5626 5621 5617 5612 5606 5599 5592 5586 5581 5574 5571 5568 5563 5560 5557 5556 5555 5553 5552 5550 5548 5545 5542 5537 5534 5531 5529 5527 5525 5525 5524 5523 5522 5521 5522
5629 5628 5628 5628 5626 5625 5623 5621 5617 5614 5609 5604 5599 5594 5587 5582 5574 5568 5561 5556 5549 5544 5539 5538 5538 5537 5537 5536 5534 5532 5529 5525 5521 5519 5517 5515 5513 5512 5512 5511 5509 5509 5510
5617 5617 5617 5616 5615 5614 5613 5611 5608 5604 5600 5595 5590 5584 5578 5572 5564 5556 5549 5542 5534 5528 5523 5523 5520 5520 5521 5520 5520 5518 5515 5512 5508 5505 5504 5502 5501 5499 5499 5498 5497 5497 5497
5606 5605 5605 5604 5603 5602 5600 5599 5596 5592 5588 5584 5578 5572 5566 5559 5551 5544 5537 5531 5525 5521 5518 5511 5505 5503 5503 5503 5503 5502 5501 5498 5494 5492 5491 5490 5488 5486 5485 5485 5484 5484 5484
5593 5593 5593 5591 5589 5588 5587 5585 5582 5578 5574 5568 5562 5557 5549 5542 5535 5528 5523 5517 5512 5509 5506 5497 5491 5488 5487 5488 5487 5487 5485 5482 5481 5480 5479 5477 5475 5475 5474 5473 5471 5472 5471
5580 5579 5578 5577 5575 5573 5571 5569 5566 5562 5558 5552 5546 5540 5533 5526 5519 5512 5506 5501 5496 5493 5490 5482 5476 5474 5473 5473 5472 5472 5470 5469 5468 5467 5466 5464 5463 5462 5461 5460 5459 5459 5459
5566 5565 5564 5563 5561 5559 5556 5554 5551 5547 5541 5535 5529 5523 5516 5510 5504 5498 5492 5486 5482 5478 5476 5471 5464 5461 5460 5459 5459 5459 5458 5456 5454 5453 5452 5451 5450 5449 5448 5447 5446 5446 5446
5552 5552 5551 5549 5547 5545 5542 5539 5535 5531 5526 5520 5514 5508 5502 5497 5490 5485 5479 5474 5469 5466 5463 5460 5455 5451 5449 5448 5447 5446 5445 5443 5442 5441 5440 5438 5437 5436 5435 5434 5433 5433 5432
5539 5538 5537 5535 5534 5531 5528 5524 5521 5516 5511 5506 5500 5495 5489 5484 5478 5473 5467 5462 5459 5456 5453 5450 5446 5443 5440 5437 5436 5434 5433 5431 5430 5429 5427 5426 5424 5422 5420 5420 5419 5418 5417
5526 5525 5524 5523 5521 5519 5515 5510 5507 5503 5498 5493 5488 5483 5478 5473 5469 5463 5458 5453 5450 5446 5443 5440 5437 5434 5431 5428 5425 5423 5421 5419 5417 5416 5414 5413 5411 5409 5407 5406 5405 5403 5402
5513 5513 5511 5510 5509 5506 5503 5499 5494 5489 5484 5480 5475 5470 5466 5462 5458 5454 5450 5446 5443 5438 5434 5430 5426 5423 5419 5417 5415 5413 5409 5405 5403 5403 5400 5398 5397 5396 5395 5394 5392 5390 5389
5501 5500 5498 5497 5495 5493 5491 5487 5483 5477 5472 5467 5463 5459 5456 5452 5447 5443 5440 5437 5433 5431 5428 5422 5417 5413 5410 5408 5405 5401 5398 5393 5390 5390 5386 5385 5385 5383 5383 5381 5379 5377 5375
5489 5488 5486 5484 5482 5481 5479 5475 5471 5465 5461 5457 5453 5449 5445 5442 5440 5435 5431 5427 5423 5421 5419 5415 5411 5407 5404 5401 5397 5393 5388 5383 5380 5378 5374 5370 5370 5369 5369 5367 5365 5363 5360
5479 5477 5475 5473 5471 5469 5468 5465 5460 5455 5450 5446 5443 5440 5437 5434 5432 5429 5423 5418 5415 5412 5410 5407 5404 5400 5397 5393 5389 5383 5377 5371 5366 5365 5362 5356 5354 5352 5352 5352 5350 5347 5345
5469 5467 5465 5462 5461 5459 5459 5456 5451 5446 5441 5438 5434 5431 5429 5427 5424 5420 5415 5410 5406 5402 5399 5396 5393 5389 5385 5381 5377 5372 5365 5357 5350 5348 5347 5342 5338 5334 5334 5335 5334 5332 5330